|
NORAD ID: 25808 Int'l Code: 1987-079T
Perigee: 401.3 km
Apogee: 16,404.2 km
Inclination: 65.0 °
Period: 297.8 minutes
Semi major axis: 14773 km
Launch date: September 16, 1987
Source: Commonwealth of Independent States (former USSR) (CIS)
Note: This is SATELLITE DEBRIS
Two Line Element Set (TLE):
1 25808U 87079T 13123.25182697 .00029599 00000-0 20382-1 0 3965
2 25808 065.0193 071.7074 5415990 199.7864 125.1685 04.83465447254107
Source:
NASA's NSSDC Master Catalog entry for SL-12 DEB
|